TimeEST,TemperatureF,Dew PointF,Humidity,Sea Level PressureIn,VisibilityMPH,Wind Direction,Wind SpeedMPH,Gust SpeedMPH,PrecipitationIn,Events,Conditions,WindDirDegrees,DateUTC
12:02 AM,15.8,12.2,86,30.02,2.5,Calm,Calm,-,N/A,,Overcast,0,2013-01-24 05:02:00
12:15 AM,15.8,12.2,86,30.02,3.0,Calm,Calm,-,N/A,,Overcast,0,2013-01-24 05:15:00
12:24 AM,15.8,14.0,93,30.02,2.5,Calm,Calm,-,N/A,,Overcast,0,2013-01-24 05:24:00
12:53 AM,16.0,14.0,92,30.08,2.0,Calm,Calm,-,0.00,Snow,Light Snow,0,2013-01-24 05:53:00
1:53 AM,17.1,14.0,88,30.08,2.5,Calm,Calm,-,0.00,Snow,Light Snow,0,2013-01-24 06:53:00
2:05 AM,15.8,12.2,86,30.02,5.0,Calm,Calm,-,0.00,,Overcast,0,2013-01-24 07:05:00
2:53 AM,16.0,12.9,88,30.10,3.0,West,3.5,-,0.00,Snow,Light Snow,260,2013-01-24 07:53:00
3:03 AM,15.8,12.2,86,30.04,2.5,Calm,Calm,-,0.00,Snow,Light Snow,0,2013-01-24 08:03:00
3:22 AM,15.8,12.2,86,30.05,4.0,WSW,3.5,-,0.00,Snow,Light Snow,250,2013-01-24 08:22:00
3:53 AM,16.0,12.0,84,30.12,6.0,Variable,3.5,-,0.00,,Overcast,0,2013-01-24 08:53:00
4:38 AM,15.8,12.2,86,30.08,2.0,WNW,4.6,-,0.00,Snow,Light Snow,300,2013-01-24 09:38:00
4:45 AM,15.8,12.2,86,30.09,1.5,WNW,4.6,-,0.00,Snow,Light Snow,300,2013-01-24 09:45:00
4:50 AM,15.8,12.2,86,30.09,3.0,WNW,4.6,-,0.00,Snow,Light Snow,290,2013-01-24 09:50:00
4:53 AM,15.1,12.0,88,30.16,4.0,NW,4.6,-,0.00,Snow,Light Snow,310,2013-01-24 09:53:00
5:06 AM,15.8,12.2,86,30.10,1.8,NW,4.6,-,0.00,Snow,Light Snow,320,2013-01-24 10:06:00
5:16 AM,15.8,12.2,86,30.12,3.0,NW,4.6,-,0.00,Snow,Light Snow,310,2013-01-24 10:16:00
5:34 AM,15.8,12.2,86,30.13,4.0,Calm,Calm,-,0.00,,Overcast,0,2013-01-24 10:34:00
5:53 AM,15.1,12.0,88,30.21,4.0,WNW,3.5,-,0.00,,Overcast,300,2013-01-24 10:53:00
6:01 AM,15.8,12.2,86,30.16,1.8,WNW,4.6,-,0.00,Snow,Light Snow,300,2013-01-24 11:01:00
6:22 AM,15.8,12.2,86,30.17,1.0,NW,3.5,-,0.00,Snow,Light Snow,310,2013-01-24 11:22:00
6:30 AM,15.8,12.2,86,30.18,2.5,NW,3.5,-,0.00,Snow,Light Snow,310,2013-01-24 11:30:00
6:38 AM,15.8,12.2,86,30.19,5.0,WNW,3.5,-,0.00,,Overcast,300,2013-01-24 11:38:00
6:51 AM,15.8,10.4,79,30.20,4.0,NW,5.8,-,0.00,,Overcast,320,2013-01-24 11:51:00
6:53 AM,15.1,10.9,84,30.27,4.0,NW,4.6,-,0.00,,Overcast,310,2013-01-24 11:53:00
7:09 AM,15.8,10.4,79,30.22,4.0,Variable,3.5,-,N/A,,Overcast,0,2013-01-24 12:09:00
7:53 AM,15.1,10.9,84,30.32,10.0,Calm,Calm,-,N/A,,Overcast,0,2013-01-24 12:53:00
8:53 AM,15.1,10.0,80,30.38,10.0,Variable,4.6,-,N/A,,Overcast,0,2013-01-24 13:53:00
9:53 AM,15.1,9.0,77,30.42,10.0,NW,3.5,-,N/A,,Mostly Cloudy,310,2013-01-24 14:53:00
10:53 AM,18.0,8.1,65,30.46,10.0,NNW,10.4,-,N/A,,Overcast,330,2013-01-24 15:53:00
11:06 AM,19.4,6.8,58,30.40,10.0,Variable,5.8,-,N/A,,Mostly Cloudy,0,2013-01-24 16:06:00
11:53 AM,19.0,5.0,54,30.48,10.0,NNW,10.4,21.9,N/A,,Partly Cloudy,330,2013-01-24 16:53:00
12:53 PM,21.0,5.0,50,30.48,10.0,NW,6.9,-,N/A,,Overcast,310,2013-01-24 17:53:00
1:53 PM,21.9,5.0,48,30.47,10.0,NNW,4.6,-,N/A,,Mostly Cloudy,340,2013-01-24 18:53:00
2:53 PM,21.9,3.0,44,30.48,10.0,WNW,9.2,-,N/A,,Mostly Cloudy,300,2013-01-24 19:53:00
3:53 PM,21.9,3.0,44,30.50,10.0,NNW,6.9,-,N/A,,Scattered Clouds,330,2013-01-24 20:53:00
4:53 PM,19.9,6.1,55,30.52,10.0,NW,9.2,-,N/A,,Scattered Clouds,320,2013-01-24 21:53:00
5:53 PM,19.0,10.9,71,30.54,4.0,North,13.8,-,0.00,Snow,Light Snow,350,2013-01-24 22:53:00
5:56 PM,17.6,12.2,79,30.48,2.5,NNW,6.9,-,0.00,Snow,Light Snow,330,2013-01-24 22:56:00
6:07 PM,17.6,10.4,73,30.48,4.0,Calm,Calm,-,0.00,Snow,Light Snow,0,2013-01-24 23:07:00
6:53 PM,16.0,9.0,74,30.56,9.0,Calm,Calm,-,0.00,Snow,Light Snow,0,2013-01-24 23:53:00
7:53 PM,17.1,6.1,62,30.57,9.0,Calm,Calm,-,0.00,Snow,Light Snow,0,2013-01-25 00:53:00
8:53 PM,14.0,5.0,67,30.56,10.0,Calm,Calm,-,0.00,,Clear,0,2013-01-25 01:53:00
9:53 PM,12.9,6.1,74,30.55,10.0,Calm,Calm,-,N/A,,Clear,0,2013-01-25 02:53:00
10:53 PM,10.0,3.9,76,30.56,10.0,Calm,Calm,-,N/A,,Clear,0,2013-01-25 03:53:00
11:53 PM,12.0,5.0,73,30.56,10.0,Calm,Calm,-,N/A,,Clear,0,2013-01-25 04:53:00